Location: Isles
(48.9125°N, 2.8272°E)
Time: 15:03:07
(UTC+00:00)

Cosmos 2219 Rocket - Pass Details

Date: 03 February 2023
Orbit: 826 x 848 km, 71.0° (Epoch: 29 March)

Event Time Altitude Azimuth Distance (km) Brightness Sun altitude
Rises 18:04:32 0° 164° (SSE) 3,351 5.3 -12.6°
Reaches altitude 10° 18:07:29 10° 149° (SSE) 2,425 4.4 -13.1°
Maximum altitude 18:11:33 21° 101° (E) 1,769 3.3 -13.8°
Enters shadow 18:12:39 20° 85° (E) 1,827 3.3 -14.0°
